Location: DaVinci Observatory
(43.1080°N, 78.6453°W)
Time: 03:33:12
(UTC-04:00)

OTV 5 (USA 277) - Pass Details

Date: 16 October 2017
Orbit: 404 x 417 km, 43.0° (Epoch: 07 September)

Event Time Altitude Azimuth Distance (km) Brightness Sun altitude
Rises 21:04:51 0° 279° (W) 2,356 ? -28.9°
Reaches altitude 10° 21:06:59 10° 275° (W) 1,491 ? -29.3°
Enters shadow 21:07:46 16° 272° (W) 1,187 ? -29.4°
